Lihue, HI

1:43 AM HST on March 28, 2017 (GMT -1000)
Lihue

Weather History for PHLI - November, 2013

Change the Weather History Date:

Wednesday, November 13, 2013

  Actual Average Record
Temperature  
Mean Temperature 69 °F 76 °F  
Max Temperature 76 °F 81 °F 86 °F (1959)
Min Temperature 61 °F 71 °F 61 °F (1950)
Degree Days  
Heating Degree Days 0 0  
Month to date heating degree days 0 0  
Since 1 July heating degree days 0 0  
Cooling Degree Days 4 11  
Month to date cooling degree days 129 150  
Year to date cooling degree days 3275 3517  
Growing Degree Days 18 (Base 50)    
Moisture  
Dew Point 60 °F    
Average Humidity 76    
Maximum Humidity 87    
Minimum Humidity 64    
Precipitation  
Precipitation 0.00 in 0.15 in 1.55 in (1968)
Month to date precipitation 2.77 1.97  
Year to date precipitation 30.33 29.36  
Snow  
Snow 0.00 in - - ()
Month to date snowfall 0.0  
Since 1 July snowfall 0.0  
Since 1 September snowfall 0.0  
Snow Depth 0.00 in    
Sea Level Pressure  
Sea Level Pressure 29.99 in    
Wind  
Wind Speed 8 mph (NW)    
Max Wind Speed 15 mph    
Max Gust Speed 18 mph    
Visibility 10 miles    
Events      
T = Trace of Precipitation, MM = Missing Value Source: NWS Daily Summary

Daily Weather History Graph

Daily Weather History Graph

Search for Another Location

Airport or City:

Trip Planner

Search our weather history database for the weather conditions in past years. The results will help you decide how hot, cold, wet, or windy it might be!

Date:

Astronomy

Nov. 13, 2013 Rise Set
Actual Time 6:48 AM HST 5:54 PM HST
Civil Twilight 6:24 AM HST 6:18 PM HST
Nautical Twilight 5:57 AM HST 6:45 PM HST
Astronomical Twilight 5:31 AM HST 7:12 PM HST
Moon 3:26 PM HST (11/13) 3:18 AM HST (11/13)
Length of Visible Light 11h 53m
Length of Day
11h 06m
Waxing Gibbous, 86% of the Moon is Illuminated
Nov 13
Waxing Gibbous
Nov 17
Full
Nov 25
Last Quarter
Dec 2
New
Dec 9
First Quarter

Hourly Weather History & Observations

Time (HST) Temp. Dew Point Humidity Pressure Visibility Wind Dir Wind Speed Gust Speed Precip Events Conditions
12:53 AM 66.9 °F 57.9 °F 73% 30.00 in 10.0 mi WNW 6.9 mph - N/A   Overcast
1:53 AM 66.0 °F 57.0 °F 73% 29.99 in 10.0 mi NW 5.8 mph - N/A   Clear
2:53 AM 63.0 °F 57.0 °F 81% 29.98 in 10.0 mi WNW 5.8 mph - N/A   Partly Cloudy
3:53 AM 62.1 °F 57.0 °F 84% 29.98 in 10.0 mi West 6.9 mph - N/A   Partly Cloudy
4:53 AM 62.1 °F 55.9 °F 80% 29.98 in 10.0 mi WNW 4.6 mph - N/A   Partly Cloudy
5:53 AM 63.0 °F 57.9 °F 84% 29.99 in 10.0 mi West 6.9 mph - N/A   Partly Cloudy
6:53 AM 64.0 °F 59.0 °F 84% 30.01 in 10.0 mi NNW 5.8 mph - N/A   Scattered Clouds
7:53 AM 68.0 °F 60.1 °F 76% 30.02 in 10.0 mi NNW 6.9 mph - N/A   Scattered Clouds
8:53 AM 72.0 °F 62.1 °F 71% 30.04 in 10.0 mi North 5.8 mph - N/A   Overcast
9:53 AM 75.0 °F 63.0 °F 66% 30.04 in 10.0 mi North 8.1 mph - N/A   Overcast
10:53 AM 75.0 °F 63.0 °F 66% 30.02 in 10.0 mi NE 11.5 mph - N/A   Overcast
11:53 AM 75.0 °F 62.1 °F 64% 30.00 in 10.0 mi NE 13.8 mph - N/A   Clear
12:53 PM 73.9 °F 62.1 °F 66% 29.98 in 10.0 mi NE 10.4 mph - N/A   Mostly Cloudy
1:53 PM 75.9 °F 62.1 °F 62% 29.95 in 10.0 mi NNE 11.5 mph - N/A   Overcast
2:53 PM 73.0 °F 61.0 °F 66% 29.95 in 10.0 mi North 5.8 mph - N/A   Overcast
3:53 PM 72.0 °F 63.0 °F 73% 29.96 in 10.0 mi WNW 8.1 mph - N/A   Overcast
4:53 PM 69.1 °F 62.1 °F 78% 29.96 in 10.0 mi WNW 11.5 mph - N/A   Overcast
5:53 PM 66.9 °F 61.0 °F 81% 29.98 in 10.0 mi West 8.1 mph - N/A   Overcast
6:53 PM 66.0 °F 61.0 °F 84% 29.99 in 10.0 mi WNW 6.9 mph - N/A   Partly Cloudy
7:13 PM 64.4 °F 60.8 °F 88% 29.99 in 10.0 mi WNW 5.8 mph - N/A   Partly Cloudy
7:53 PM 64.9 °F 60.1 °F 84% 30.00 in 10.0 mi West 4.6 mph - N/A   Partly Cloudy
8:53 PM 64.0 °F 60.1 °F 87% 30.01 in 10.0 mi West 6.9 mph - N/A   Clear
9:10 PM 64.4 °F 60.8 °F 88% 30.01 in 10.0 mi West 8.1 mph - N/A   Partly Cloudy
9:53 PM 64.0 °F 60.1 °F 87% 30.00 in 10.0 mi West 8.1 mph - N/A   Clear
10:53 PM 64.0 °F 60.1 °F 87% 30.00 in 10.0 mi West 6.9 mph - N/A   Clear
11:53 PM 64.0 °F 59.0 °F 84% 30.00 in 10.0 mi West 8.1 mph - N/A   Mostly Cloudy